DW0331 Weather Reports


Display with metric or nautical units.
time (UTC)temp
F
wind
direction
speed
MPH
gust
MPH
rain 1hr
in
rain 24hr
in
rain mn
in
humidity
%
barometer
mb
20201028000028 32 179 2.0 4.0 0.00 0.00 0.00 94 1021.3
20201027235009 32 172 1.0 3.0 0.00 0.00 0.00 94 1021.6
20201027234017 32 0 0.0 1.0 0.00 0.00 0.00 94 1021.8
20201027233055 32 87 1.0 2.0 0.00 0.00 0.00 94 1021.9
20201027232006 32 0 0.0 2.0 0.00 0.00 0.00 94 1022.3
20201027231038 31 77 1.0 3.0 0.00 0.00 0.00 93 1022.1
20201027230036 31 70 1.0 3.0 0.00 0.00 0.00 93 1022.2
20201027225017 31 40 1.0 3.0 0.00 0.00 0.00 93 1022.6
20201027224013 31 59 1.0 3.0 0.00 0.00 0.00 93 1022.4
20201027223020 31 0 0.0 4.0 0.00 0.00 0.00 93 1022.6
20201027222005 32 68 1.0 4.0 0.00 0.00 0.00 93 1022.4
20201027221006 32 70 1.0 5.0 0.00 0.00 0.00 93 1022.4
20201027220019 32 69 1.0 4.0 0.00 0.00 0.00 93 1022.4
20201027215025 32 78 2.0 5.0 0.00 0.00 0.00 93 1022.7
20201027214017 32 68 1.0 5.0 0.00 0.00 0.00 92 1022.8
20201027213019 32 60 1.0 4.0 0.00 0.00 0.00 92 1023.0
20201027212020 33 45 2.0 3.0 0.00 0.00 0.00 91 1022.9
20201027211021 33 46 1.0 3.0 0.00 0.00 0.00 90 1022.8
20201027210021 33 63 2.0 4.0 0.00 0.00 0.00 90 1022.8
20201027205021 34 60 1.0 5.0 0.00 0.00 0.00 88 1023.0
20201027204025 34 58 2.0 5.0 0.00 0.00 0.00 86 1023.2
20201027203017 35 57 2.0 5.0 0.00 0.00 0.00 83 1023.1
20201027202010 35 32 2.0 4.0 0.00 0.00 0.00 80 1023.3
20201027201011 36 21 2.0 6.0 0.00 0.00 0.00 80 1023.1
20201027200022 36 14 2.0 5.0 0.00 0.00 0.00 77 1023.0
20201027195010 37 62 2.0 6.0 0.00 0.00 0.00 74 1022.6
20201027194007 37 72 2.0 6.0 0.00 0.00 0.00 75 1022.5
20201027193022 37 64 2.0 5.0 0.00 0.00 0.00 76 1022.6
20201027192022 37 28 2.0 6.0 0.00 0.00 0.00 73 1022.3
20201027191007 37 35 2.0 6.0 0.00 0.00 0.00 73 1022.4
20201027190028 37 60 3.0 5.0 0.00 0.00 0.00 76 1021.6
20201027185008 37 28 3.0 5.0 0.00 0.00 0.00 74 1022.2
20201027184009 38 28 2.0 5.0 0.00 0.00 0.00 74 1022.3
20201027183020 38 61 3.0 6.0 0.00 0.00 0.00 74 1022.8
20201027182008 37 35 2.0 5.0 0.00 0.00 0.00 73 1022.8
20201027181037 37 35 2.0 3.0 0.00 0.00 0.00 74 1023.0
20201027180020 37 49 2.0 6.0 0.00 0.00 0.00 76 1023.4
20201027175044 36 11 2.0 5.0 0.00 0.00 0.00 76 1023.3
20201027174010 36 20 2.0 4.0 0.00 0.00 0.00 76 1023.5
20201027173025 36 23 2.0 5.0 0.00 0.00 0.00 76 1023.7
20201027172021 36 63 3.0 6.0 0.00 0.00 0.00 77 1023.8
20201027171018 36 7 2.0 7.0 0.00 0.00 0.00 77 1023.8
20201027170021 36 18 3.0 10.0 0.00 0.00 0.00 78 1023.7
20201027165006 36 25 2.0 7.0 0.00 0.00 0.00 78 1023.8
20201027164020 36 57 2.0 6.0 0.00 0.00 0.00 78 1024.2
20201027163025 36 11 3.0 6.0 0.00 0.00 0.00 78 1024.4
20201027162023 35 69 2.0 4.0 0.00 0.00 0.00 79 1024.3
20201027161018 35 39 3.0 7.0 0.00 0.00 0.00 80 1024.2
20201027160022 35 65 3.0 6.0 0.00 0.00 0.00 80 1024.4
20201027155007 35 42 3.0 7.0 0.00 0.00 0.00 83 1024.2
20201027154005 35 61 2.0 5.0 0.00 0.00 0.00 82 1024.2
20201027153018 35 43 3.0 6.0 0.00 0.00 0.00 83 1024.3
20201027152022 35 15 3.0 6.0 0.00 0.00 0.00 83 1024.4
20201027151012 35 50 3.0 7.0 0.00 0.00 0.00 82 1024.4
20201027150022 35 21 3.0 8.0 0.00 0.00 0.00 83 1025.0
20201027145022 35 18 4.0 8.0 0.00 0.00 0.00 84 1025.1
20201027144009 35 19 3.0 9.0 0.00 0.00 0.00 85 1025.1
20201027143021 34 24 3.0 7.0 0.00 0.00 0.00 85 1024.9
20201027142021 34 39 2.0 6.0 0.00 0.00 0.00 87 1025.1
20201027141008 34 14 3.0 6.0 0.00 0.00 0.00 87 1024.9
20201027140013 34 15 3.0 9.0 0.00 0.00 0.00 86 1025.2
20201027135005 34 10 4.0 10.0 0.00 0.00 0.00 87 1025.3
20201027134005 34 15 2.0 9.0 0.00 0.00 0.00 88 1025.2
20201027133022 33 14 3.0 9.0 0.00 0.00 0.00 88 1024.9
20201027132011 33 7 3.0 9.0 0.00 0.00 0.00 87 1024.9
20201027131010 33 14 4.0 10.0 0.00 0.00 0.00 87 1025.3
20201027130019 33 358 4.0 10.0 0.00 0.00 0.00 86 1025.1
20201027125015 34 15 3.0 13.0 0.00 0.00 0.00 86 1025.1
20201027124012 34 20 3.0 8.0 0.00 0.00 0.00 86 1025.0
20201027123021 34 17 4.0 10.0 0.00 0.00 0.00 87 1024.4
20201027122008 34 15 3.0 11.0 0.00 0.00 0.00 86 1024.4
20201027121010 33 6 3.0 9.0 0.00 0.00 0.00 87 1024.6
20201027120011 33 6 3.0 10.0 0.00 0.00 0.00 86 1024.3
20201027115007 33 12 3.0 7.0 0.00 0.00 0.00 85 1024.5
20201027114009 34 4 4.0 10.0 0.00 0.00 0.00 85 1024.4
20201027113023 34 6 3.0 9.0 0.00 0.00 0.00 85 1024.5
20201027112010 34 6 3.0 11.0 0.00 0.00 0.00 85 1024.7
20201027111008 34 2 3.0 9.0 0.00 0.00 0.00 84 1024.8
20201027110017 34 359 3.0 11.0 0.00 0.00 0.00 84 1024.8
20201027105008 35 350 4.0 12.0 0.00 0.00 0.00 84 1024.7
20201027104011 35 357 4.0 11.0 0.00 0.00 0.00 85 1024.5
20201027103019 35 8 3.0 9.0 0.00 0.00 0.00 89 1024.3
20201027102011 36 3 4.0 10.0 0.00 0.00 0.00 88 1024.5
20201027101005 36 6 3.0 9.0 0.00 0.00 0.00 87 1024.2
20201027100020 36 13 4.0 11.0 0.00 0.00 0.00 88 1024.1
20201027095008 36 16 3.0 11.0 0.00 0.00 0.00 88 1024.1
20201027094021 36 4 3.0 8.0 0.00 0.00 0.00 88 1024.2
20201027093020 36 2 4.0 14.0 0.00 0.01 0.00 89 1024.1
20201027092004 36 7 3.0 9.0 0.00 0.01 0.00 88 1023.9
20201027091005 36 6 3.0 9.0 0.00 0.01 0.00 89 1023.9
20201027090018 36 358 3.0 10.0 0.00 0.01 0.00 90 1023.8
20201027085007 36 356 2.0 5.0 0.00 0.01 0.00 90 1023.8
20201027084008 36 350 3.0 6.0 0.00 0.01 0.00 89 1023.7
20201027083020 36 349 2.0 6.0 0.00 0.01 0.00 90 1023.7
20201027082007 36 357 2.0 6.0 0.00 0.01 0.00 90 1023.9
20201027081012 36 337 2.0 5.0 0.00 0.01 0.00 89 1023.8
20201027080016 36 353 2.0 6.0 0.00 0.01 0.00 89 1023.7
20201027075009 36 7 1.0 5.0 0.00 0.01 0.00 89 1023.7
20201027074008 36 6 2.0 7.0 0.00 0.01 0.00 89 1023.5
20201027073018 36 4 2.0 7.0 0.00 0.01 0.00 90 1023.5
20201027072006 36 359 3.0 9.0 0.00 0.01 0.00 89 1023.5
20201027071011 36 3 2.0 7.0 0.00 0.01 0.00 89 1023.6
20201027070022 37 3 3.0 9.0 0.00 0.01 0.00 89 1023.4
20201027065009 37 3 3.0 10.0 0.00 0.01 0.00 90 1023.3
20201027064011 37 357 3.0 10.0 0.00 0.01 0.00 89 1023.2
20201027063023 37 1 3.0 8.0 0.00 0.01 0.00 90 1023.1
20201027062020 37 3 3.0 9.0 0.00 0.01 0.00 90 1022.8
20201027061023 37 11 3.0 7.0 0.00 0.01 0.00 91 1022.8
20201027060020 37 348 2.0 9.0 0.00 0.01 0.00 91 1022.7
20201027055012 37 4 2.0 5.0 0.00 0.01 0.00 91 1022.6
20201027054011 37 355 2.0 6.0 0.00 0.01 0.00 91 1022.6
20201027053019 37 356 3.0 6.0 0.00 0.01 0.00 92 1022.6
20201027052005 38 14 2.0 7.0 0.00 0.01 0.00 92 1022.3
20201027051008 38 348 2.0 6.0 0.00 0.01 0.00 92 1022.5
20201027050025 38 15 3.0 6.0 0.00 0.01 0.00 92 1022.6
20201027045007 38 357 2.0 6.0 0.00 0.01 0.00 92 1022.4
20201027044011 38 2 2.0 5.0 0.00 0.01 0.00 92 1022.4
20201027043010 38 353 2.0 4.0 0.00 0.01 0.00 92 1022.1
20201027042020 38 4 1.0 6.0 0.00 0.01 0.00 92 1022.0
20201027041011 38 348 2.0 6.0 0.00 0.01 0.00 91 1022.1
20201027040028 38 15 2.0 8.0 0.00 0.01 0.00 91 1022.0
20201027035024 38 350 1.0 5.0 0.00 0.01 0.01 92 1022.0
20201027034009 38 357 1.0 4.0 0.00 0.01 0.01 93 1021.9
20201027033025 38 353 1.0 7.0 0.00 0.01 0.01 92 1021.9
20201027032007 38 351 2.0 5.0 0.00 0.01 0.01 92 1021.8
20201027031010 39 1 3.0 7.0 0.00 0.01 0.01 92 1021.8
20201027030012 39 1 1.0 9.0 0.00 0.01 0.01 92 1021.6
20201027025005 39 0 0.0 3.0 0.00 0.01 0.01 94 1021.4
20201027024005 39 356 1.0 4.0 0.00 0.01 0.01 94 1021.4
20201027023023 39 358 1.0 5.0 0.00 0.01 0.01 94 1021.3
20201027022004 39 356 2.0 6.0 0.00 0.01 0.01 94 1021.2
20201027021010 39 5 3.0 8.0 0.00 0.01 0.01 94 1021.1
20201027020025 39 354 2.0 9.0 0.00 0.01 0.01 95 1020.7
20201027015027 40 352 1.0 6.0 0.00 0.01 0.01 95 1020.7
20201027014017 40 352 1.0 3.0 0.00 0.01 0.01 95 1020.5
20201027013011 39 4 1.0 2.0 0.00 0.01 0.01 95 1020.5
20201027012012 39 349 1.0 4.0 0.00 0.01 0.01 95 1020.5
20201027011008 39 357 1.0 6.0 0.00 0.01 0.01 95 1020.6
20201027010020 39 0 0.0 4.0 0.00 0.01 0.01 95 1020.5
20201027005006 39 341 1.0 4.0 0.00 0.01 0.01 95 1020.3
20201027004014 39 333 1.0 4.0 0.00 0.01 0.01 95 1020.3
20201027003010 39 330 1.0 7.0 0.00 0.01 0.01 95 1019.9
20201027002011 39 354 1.0 7.0 0.00 0.01 0.01 95 1019.9
20201027001011 39 0 0.0 3.0 0.00 0.01 0.01 95 1019.8